Location: *
(38.4303°S, 157.0822°W)
Time: 12:59:57
(UTC+00:00)

Meteor 2-13 Rocket - Pass Details

Date: 21 May 2024
Orbit: 935 x 958 km, 82.5° (Epoch: 14 June)

Event Time Altitude Azimuth Distance (km) Brightness Sun altitude
Rises 16:39:05 0° 347° (NNW) 3,595 7.5 -9.9°
Reaches altitude 10° 16:41:34 10° 344° (NNW) 2,662 6.8 -9.4°
Maximum altitude 16:47:38 68° 261° (W) 1,029 4.4 -8.3°
Drops below altitude 10° 16:53:49 10° 178° (S) 2,711 6.7 -7.2°
Sets 16:56:22 0° 175° (S) 3,666 7.3 -6.7°
